Orbital Elements at Epoch 2459200.5 (2020-Dec-17.0) TDB
Reference: JPL 17 (heliocentric ecliptic J2000)
Element | Value | Uncertainty (1-sigma) | Units |
e | .06915409740511255 | 8.1413e-08 | |
a | 2.619825691419238 | 2.7927e-08 | au |
q | 2.438654010370416 | 2.2821e-07 | au |
i | 10.45314107982823 | 5.1332e-06 | deg |
node | 98.29956821986956 | 2.7395e-05 | deg |
peri | 130.6021897194269 | 6.6189e-05 | deg |
M | 340.2673541625742 | 6.7506e-05 | deg |
tp | 2459285.396511014430 (2021-Mar-11.89651101) | 0.00029112 | TDB |
period | 1548.841661528643 4.24 | 2.4766e-05 6.781e-08 | d yr |
n | .2324317642932556 | 3.7166e-09 | deg/d |
Q | 2.80099737246806 | 2.9859e-08 | au |
|
| | Orbit Determination Parameters
Additional Information
|